This demonstration page uses our WeatherBlox Daily Observations layout. Learn more.

Left ArrowRight Arrow

34.02893, -84.19858

Hourly Observations for April 9, 2023

Temp ( °F °C ) Dew Point ( °F °C ) Humidity (%) Winds ( mph kmh ) Pressure ( in mb ) Visibility ( mi km ) Precip ( " mm )
12:53 am 00:53 Cloudy 43 6.1 39 3.9 86 86 NE 8 13 30.29 1026 10 16 0.00 0.00
1:53 am 01:53 Cloudy 44 6.7 40 4.4 85 85 VRB 3 6 30.28 1025 10 16 0.00 0.00
2:53 am 02:53 Cloudy 44 6.7 39 3.9 82 82 ENE 10 17 30.27 1025 10 16 0.00 0.00
3:07 am 03:07 Cloudy 44 6.7 39 3.9 82 82 VRB 5 7 30.26 1025 10 16 0.00 0.00
3:40 am 03:40 Mostly Cloudy 43 6.1 38 3.3 82 82 undefined N/A 30.27 1025 10 16 0.00 0.00
3:51 am 03:51 Mostly Clear 43 6 37 3 81 81 VRB 3 6 30.28 1025 10 16 0.00 0.00
3:53 am 03:53 Mostly Clear 42 5.6 38 3.3 85 85 VRB 5 7 30.27 1025 10 16 0.00 0.00
4:53 am 04:53 Cloudy 43 6.1 36 2.2 76 76 Calm 30.27 1025 10 16 0.00 0.00
5:53 am 05:53 Clear 42 5.6 35 1.7 76 76 VRB 7 11 30.28 1026 10 16 0.00 0.00
6:53 am 06:53 Cloudy 42 5.6 36 2.2 79 79 undefined N/A 30.30 1026 10 16 0.00 0.00
7:53 am 07:53 Cloudy 43 6.1 34 1.1 70 70 NE 8 13 30.32 1027 10 16 0.00 0.00
8:53 am 08:53 Mostly Sunny 45 7.2 34 1.1 65 65 E 13 20 30.35 1028 10 16 0.00 0.00
9:53 am 09:53 Sunny 48 8.9 35 1.7 61 61 VRB 5 7 30.35 1028 10 16 0.00 0.00
10:53 am 10:53 Sunny 51 10.6 36 2.2 56 56 undefined N/A 30.34 1028 10 16 0.00 0.00
11:53 am 11:53 Sunny 54 12.2 38 3.3 54 54 NE 8 13 30.34 1027 10 16 0.00 0.00
12:53 pm 12:53 Sunny 57 13.9 39 3.9 51 51 ENE 10 17 30.32 1027 10 16 0.00 0.00
1:53 pm 13:53 Sunny 59 15 39 3.9 47 47 VRB 6 9 30.31 1026 10 16 0.00 0.00
2:53 pm 14:53 Sunny 62 16.7 41 5 46 46 VRB 3 6 30.29 1026 10 16 0.00 0.00
3:53 pm 15:53 Sunny 64 17.8 39 3.9 40 40 VRB 5 7 30.28 1025 10 16 0.00 0.00
4:53 pm 16:53 Sunny 65 18.3 38 3.3 37 37 VRB 7 11 30.27 1025 10 16 0.00 0.00
5:53 pm 17:53 Sunny 65 18.3 32 0 29 29 VRB 5 7 30.27 1025 10 16 0.00 0.00
6:53 pm 18:53 Sunny 62 16.7 31 -0.6 31 31 undefined N/A 30.27 1025 10 16 0.00 0.00
7:53 pm 19:53 Sunny 60 15.6 31 -0.6 33 33 VRB 6 9 30.28 1025 10 16 0.00 0.00
8:53 pm 20:53 Clear 57 13.9 30 -1.1 35 35 Calm 30.29 1026 10 16 0.00 0.00
9:53 pm 21:53 Clear 54 12.2 31 -0.6 41 41 VRB 3 6 30.32 1027 10 16 0.00 0.00
10:53 pm 22:53 Clear 53 11.7 30 -1.1 41 41 VRB 3 6 30.33 1027 10 16 0.00 0.00
11:53 pm 23:53 Clear 51 10.6 30 -1.1 44 44 VRB 5 7 30.35 1028 10 16 0.00 0.00

Powered by Vaisala Xweather